Location: Unspecified
(0.0000°N, 0.0000°E)
Time: 05:39:46
(UTC+02:00)

Vanguard 1 Rocket - Visible Passes

Search period start: 01 June 2016 00:00
Search period end: 11 June 2016 00:00
Orbit: 651 x 4225 km, 34.3° (Epoch: 30 May)

Date Brightness Start Highest point End Pass type
(mag) Time Alt. Az. Time Alt. Az. Time Alt. Az.
01 Jun 9.8 04:58:15 29° SSE 04:58:15 29° SSE 05:04:34 10° SE visible
01 Jun 10.0 07:15:36 10° WSW 07:23:33 21° SSW 07:35:49 10° SSE visible
02 Jun 9.6 06:08:59 26° SSW 06:09:30 26° SSW 06:20:45 10° SSE visible
03 Jun 10.1 05:02:18 21° SSE 05:02:18 21° SSE 05:06:52 10° SE visible
03 Jun 10.3 07:20:52 10° SW 07:28:01 17° S 07:38:00 10° SSE visible
04 Jun 9.9 06:12:54 19° SSW 06:13:37 19° SSW 06:22:34 10° SSE visible
05 Jun 10.3 05:06:07 16° SSE 05:06:07 16° SSE 05:08:56 10° SSE visible
05 Jun 10.4 07:26:39 10° SSW 07:32:41 14° S 07:40:28 10° SSE visible
06 Jun 10.2 06:16:36 14° SSW 06:17:55 14° S 06:24:08 10° SSE visible
07 Jun 10.5 05:09:42 11° SSE 05:09:42 11° SSE 05:10:37 10° SSE visible
07 Jun 10.6 07:32:28 10° SSW 07:37:29 12° S 07:43:32 10° SSE visible
08 Jun 10.4 06:20:18 10° SSW 06:22:23 11° S 06:24:41 10° S visible
